Weather History for KHNZ - May, 2014

Change the Weather History Date:

Wednesday, May 28, 2014

  Actual Average (KTDF) Record (KTDF)
Temperature  
Mean Temperature 77 °F -  
Max Temperature 88 °F 76 °F 93 °F (1967)
Min Temperature 66 °F 54 °F 40 °F (1968)
Cooling Degree Days 12    
Growing Degree Days 27 (Base 50)    
Moisture  
Dew Point 62 °F    
Average Humidity 62    
Maximum Humidity 92    
Minimum Humidity 37    
Precipitation  
Precipitation 0.00 in - - ()
Sea Level Pressure  
Sea Level Pressure 29.97 in    
Wind  
Wind Speed 5 mph (West)    
Max Wind Speed 15 mph    
Max Gust Speed 24 mph    
Visibility 10 miles    
Events      
Averages and records for this station are not official NWS values.
T = Trace of Precipitation, MM = Missing Value Source: NWS Daily Summary

Daily Weather History Graph

Daily Weather History Graph

Search for Another Location

Airport or City:

Trip Planner

Search our weather history database for the weather conditions in past years. The results will help you decide how hot, cold, wet, or windy it might be!

Date:

Astronomy

May. 28, 2014 Rise Set
Actual Time 5:59 AM EDT 8:23 PM EDT
Civil Twilight 5:29 AM EDT 8:53 PM EDT
Nautical Twilight 4:53 AM EDT 9:30 PM EDT
Astronomical Twilight 4:13 AM EDT 10:10 PM EDT
Moon 6:02 AM EDT (5/28) 8:22 PM EDT (5/28)
Length of Visible Light 15h 23m
Length of Day
14h 24m
Waning Crescent, 0% of the Moon is Illuminated
May 28
Waning Crescent
May 28
New
Jun 5
First Quarter
Jun 13
Full
Jun 19
Last Quarter

Hourly Weather History & Observations

Time (EDT) Temp. Heat Index Dew Point Humidity Pressure Visibility Wind Dir Wind Speed Gust Speed Precip Events Conditions
12:15 AM 68.4 °F - 65.8 °F 92% 29.98 in 10.0 mi SW 6.9 mph - N/A   Clear
12:35 AM 68.9 °F - 65.7 °F 89% 29.98 in 10.0 mi SW 5.8 mph - N/A   Clear
12:55 AM 68.9 °F - 65.3 °F 88% 29.98 in 10.0 mi SW 6.9 mph - N/A   Clear
1:15 AM 68.9 °F - 65.3 °F 88% 29.98 in 10.0 mi SW 6.9 mph - N/A   Clear
1:35 AM 68.0 °F - 64.9 °F 90% 29.97 in 10.0 mi WSW 4.6 mph - N/A   Clear
1:55 AM 67.6 °F - 64.6 °F 90% 29.97 in 10.0 mi WSW 4.6 mph - N/A   Clear
2:15 AM 67.5 °F - 64.4 °F 90% 29.97 in 10.0 mi WSW 4.6 mph - N/A   Clear
2:35 AM 67.5 °F - 63.9 °F 88% 29.96 in 10.0 mi SW 3.5 mph - N/A   Clear
2:55 AM 66.9 °F - 63.5 °F 89% 29.95 in 10.0 mi SW 4.6 mph - N/A   Clear
3:15 AM 67.1 °F - 62.8 °F 86% 29.95 in 10.0 mi WSW 4.6 mph - N/A   Clear
3:35 AM 67.1 °F - 62.4 °F 85% 29.95 in 10.0 mi WSW 3.5 mph - N/A   Clear
3:55 AM 67.5 °F - 61.2 °F 80% 29.95 in 10.0 mi West 4.6 mph - N/A   Clear
4:15 AM 67.8 °F - 60.6 °F 78% 29.95 in 10.0 mi West 4.6 mph - N/A   Clear
4:35 AM 66.4 °F - 59.9 °F 80% 29.95 in 10.0 mi SW 4.6 mph - N/A   Clear
5:15 AM 66.9 °F - 59.5 °F 77% 29.95 in 10.0 mi WSW 3.5 mph - N/A   Clear
5:35 AM 67.1 °F - 59.2 °F 76% 29.95 in 10.0 mi WSW 3.5 mph - N/A   Clear
5:55 AM 67.1 °F - 59.0 °F 75% 29.95 in 10.0 mi WSW 3.5 mph - N/A   Clear
6:15 AM 66.9 °F - 59.0 °F 76% 29.96 in 10.0 mi WSW 3.5 mph - N/A   Clear
6:35 AM 67.1 °F - 59.0 °F 75% 29.97 in 10.0 mi WSW 3.5 mph - N/A   Clear
6:55 AM 67.5 °F - 59.4 °F 75% 29.97 in 10.0 mi West 3.5 mph - N/A   Clear
7:15 AM 68.5 °F - 59.5 °F 73% 29.97 in 10.0 mi West 3.5 mph - N/A   Clear
7:35 AM 70.2 °F - 60.1 °F 70% 29.98 in 10.0 mi WSW 4.6 mph - N/A   Clear
7:55 AM 71.1 °F - 61.2 °F 71% 29.98 in 10.0 mi Calm Calm - N/A   Clear
8:15 AM 73.2 °F - 61.7 °F 67% 29.99 in 10.0 mi West 4.6 mph - N/A   Clear
8:35 AM 75.2 °F - 62.2 °F 64% 29.99 in 10.0 mi West 5.8 mph - N/A   Clear
8:55 AM 77.0 °F - 62.2 °F 60% 30.00 in 10.0 mi West 4.6 mph - N/A   Clear
9:15 AM 78.8 °F - 63.3 °F 59% 30.00 in 10.0 mi West 4.6 mph - N/A   Clear
9:35 AM 79.5 °F - 62.2 °F 55% 30.00 in 10.0 mi WNW 5.8 mph - N/A   Clear
9:55 AM 81.0 °F 82.1 °F 62.6 °F 53% 30.00 in 10.0 mi NW 3.5 mph - N/A   Clear
10:15 AM 81.7 °F 82.4 °F 61.5 °F 50% 30.00 in 10.0 mi WNW 10.4 mph - N/A   Clear
10:35 AM 82.6 °F 83.2 °F 61.9 °F 49% 30.00 in 10.0 mi NW 6.9 mph - N/A   Clear
10:55 AM 82.6 °F 83.2 °F 61.9 °F 49% 30.01 in 10.0 mi North 9.2 mph - N/A   Clear
11:15 AM 83.3 °F 83.9 °F 61.9 °F 48% 30.00 in 10.0 mi NNW 6.9 mph - N/A   Clear
11:35 AM 83.8 °F 84.5 °F 62.2 °F 48% 30.01 in 10.0 mi NW 5.8 mph - N/A   Clear
11:55 AM 84.6 °F 85.2 °F 62.4 °F 47% 30.01 in 10.0 mi NNW 4.6 mph - N/A   Clear
12:15 PM 84.9 °F 85.6 °F 62.4 °F 47% 30.01 in 10.0 mi North 4.6 mph - N/A   Clear
12:35 PM 85.3 °F 85.9 °F 62.2 °F 46% 30.01 in 10.0 mi West 5.8 mph - N/A   Clear
12:55 PM 86.0 °F 86.6 °F 62.2 °F 45% 30.00 in 10.0 mi NW 9.2 mph - N/A   Clear
1:15 PM 86.9 °F 87.0 °F 61.5 °F 42% 30.00 in 10.0 mi WNW 4.6 mph - N/A   Clear
1:35 PM 85.8 °F 86.6 °F 62.8 °F 46% 30.00 in 10.0 mi WNW 4.6 mph - N/A   Clear
1:55 PM 86.9 °F 87.0 °F 61.0 °F 42% 29.99 in 10.0 mi WNW 4.6 mph - N/A   Clear
2:15 PM 87.4 °F 87.2 °F 60.1 °F 40% 29.99 in 10.0 mi North 4.6 mph - N/A   Clear
2:35 PM 88.0 °F 87.6 °F 60.1 °F 39% 29.98 in 10.0 mi WNW 4.6 mph - N/A   Clear
2:55 PM 88.2 °F 87.8 °F 60.1 °F 39% 29.98 in 10.0 mi NW 5.8 mph - N/A   Clear
3:15 PM 87.8 °F 87.6 °F 60.6 °F 40% 29.97 in 10.0 mi Calm Calm - N/A   Scattered Clouds
3:35 PM 88.2 °F 87.6 °F 59.5 °F 38% 29.97 in 10.0 mi Calm Calm - N/A   Scattered Clouds
3:55 PM 88.5 °F 88.3 °F 60.8 °F 39% 29.96 in 10.0 mi WSW 6.9 mph - N/A   Clear
4:15 PM 88.2 °F 87.3 °F 59.0 °F 37% 29.95 in 10.0 mi Calm Calm - N/A   Clear
4:35 PM 88.0 °F 87.4 °F 59.7 °F 38% 29.95 in 10.0 mi WNW 5.8 mph - N/A   Clear
4:55 PM 87.3 °F 87.2 °F 60.8 °F 41% 29.94 in 10.0 mi WNW 4.6 mph - N/A   Clear
5:15 PM 86.7 °F 86.5 °F 60.4 °F 41% 29.94 in 10.0 mi WSW 5.8 mph - N/A   Scattered Clouds
5:35 PM 86.5 °F 87.3 °F 62.6 °F 45% 29.94 in 10.0 mi WSW 6.9 mph - N/A   Scattered Clouds
5:55 PM 86.2 °F 86.6 °F 61.7 °F 44% 29.94 in 10.0 mi SW 9.2 mph - N/A   Scattered Clouds
6:15 PM 84.7 °F 85.2 °F 61.9 °F 46% 29.94 in 7.0 mi WSW 4.6 mph - N/A   Clear
6:35 PM 84.9 °F 85.6 °F 62.6 °F 47% 29.94 in 10.0 mi WSW 5.8 mph - N/A   Clear
6:55 PM 84.2 °F 85.4 °F 63.5 °F 50% 29.94 in 7.0 mi SW 4.6 mph - N/A   Clear
7:15 PM 83.7 °F 84.9 °F 63.5 °F 51% 29.94 in 10.0 mi SW 3.5 mph - N/A   Clear
7:35 PM 83.7 °F 84.7 °F 63.0 °F 50% 29.94 in 10.0 mi SW 5.8 mph - N/A   Clear
7:55 PM 82.2 °F 83.5 °F 63.5 °F 53% 29.94 in 10.0 mi SW 4.6 mph - N/A   Clear
8:15 PM 80.8 °F 82.2 °F 63.7 °F 56% 29.96 in 10.0 mi SW 3.5 mph - N/A   Clear
8:35 PM 78.8 °F - 64.4 °F 61% 29.96 in 10.0 mi Calm Calm - N/A   Clear
8:55 PM 78.6 °F - 64.9 °F 63% 29.97 in 10.0 mi Calm Calm - N/A   Clear
9:15 PM 77.2 °F - 64.8 °F 65% 29.98 in 10.0 mi Calm Calm - N/A   Clear
9:35 PM 76.3 °F - 66.0 °F 70% 29.99 in 10.0 mi Calm Calm - N/A   Clear
9:55 PM 75.9 °F - 65.5 °F 70% 29.99 in 10.0 mi SSW 3.5 mph - N/A   Clear
10:15 PM 73.8 °F - 66.2 °F 77% 30.00 in 10.0 mi NNE 6.9 mph - N/A   Scattered Clouds
10:35 PM 75.0 °F - 60.1 °F 60% 30.02 in 10.0 mi NNE 4.6 mph - N/A   Mostly Cloudy
11:15 PM 70.9 °F - 61.7 °F 73% 30.02 in 10.0 mi ENE 15.0 mph 24.2 mph N/A   Mostly Cloudy
11:55 PM 68.4 °F - 61.9 °F 80% 30.03 in 10.0 mi NE 4.6 mph - N/A   Overcast